[[{"header":{"parameterUnit":"m.s-1","parameterCategory":1,"la1":30.2991,"la2":30.254,"lo1":-89.0895,"lo2":-89.0444,"dy":0.0017,"dx":0.0017,"nx":28,"ny":28,"refTime":"2023-08-02T21:00:00:Z","depth":0,"parameterNumber":2,"parameterNumberName":"U-component_of_WINDS"},"data":[0,0,0,0,0,0,0,0,0,0,0,0,0,0,0,0,0,0,0,0,0,0,0,0,0,0,0,0,0,0,0,0,0,0,0,0,0,0,0,0,0,0,0,0,0,0,0,0,0,0,0,0,0,0,0,0,0,0,-0.9826,-0.9825,0,-0.9801,-0.98,-0.98,-0.9827,-0.9829,-0.983,-0.9831,-0.9799,-0.9797,-0.9795,0,0,0,0,0,0,0,0,0,0,0,0,0,-0.9894,-0.9892,-0.9826,-0.9825,-0.9825,-0.9801,-0.98,-0.98,-0.9827,-0.9829,-0.983,-0.9831,-0.9799,-0.9797,-0.9795,0,0,0,0,0,0,0,0,0,0,0,0,0,-0.9866,-0.9892,-0.9826,-0.9836,-0.9837,-0.9801,-0.98,-0.98,-0.9827,-0.9829,-0.983,-0.9832,-0.98,-0.9797,-0.9794,-0.9746,0,0,-0.9786,-0.9785,0,0,0,0,0,0,0,0,-0.9867,-0.9863,-0.9835,-0.9835,-0.9836,-0.9819,-0.9813,-0.9781,-0.9827,-0.983,-0.9831,-0.9832,-0.9804,-0.9801,-0.9792,-0.9744,-0.9743,-0.9786,-0.9784,-0.9783,-0.9782,0,0,0,0,0,0,0,-0.9869,-0.9864,-0.9816,-0.9834,-0.9835,-0.9841,-0.9839,-0.9807,-0.9808,-0.983,-0.9832,-0.9829,-0.9804,-0.9795,-0.9792,-0.9742,-0.9786,-0.9783,-0.9782,-0.9781,-0.9656,-0.9655,0,0,0,0,0,0,-0.9871,-0.9866,-0.9816,-0.9815,-0.9856,-0.9838,-0.9836,-0.9823,-0.9809,-0.9808,-0.9828,-0.9831,-0.9799,-0.9795,-0.9791,-0.9735,-0.9783,-0.978,-0.9779,-0.9658,-0.9656,-0.9654,0,0,0,0,0,0,-0.9872,-0.9866,-0.9817,-0.9841,-0.9835,-0.9835,-0.982,-0.9821,-0.9812,-0.9807,-0.9807,-0.9818,-0.98,-0.9795,-0.9758,-0.9734,-0.9779,-0.9777,-0.966,-0.9658,-0.9655,-0.962,0,0,0,0,0,0,-0.9874,-0.9866,-0.9848,-0.9841,-0.9834,-0.9785,-0.9819,-0.982,-0.9808,-0.9811,-0.9798,-0.9797,-0.9801,-0.9762,-0.9755,-0.9731,-0.9774,-0.9662,-0.9659,-0.9656,-0.9624,-0.9617,-0.9612,0,0,0,0,0,-0.9876,-0.9837,-0.9847,-0.9841,-0.9811,-0.9784,-0.978,-0.9787,-0.9806,-0.9787,-0.9785,-0.9798,-0.9738,-0.9758,-0.975,-0.9725,-0.9664,-0.966,-0.9656,-0.9626,-0.9618,-0.9612,0,0,0,0,0,0,-0.9838,-0.9836,-0.9847,-0.9804,-0.9795,-0.9789,-0.9765,-0.9778,-0.976,-0.9764,-0.9771,-0.9768,-0.973,-0.9724,-0.9746,-0.9679,-0.9704,-0.9698,-0.9684,-0.9676,-0.967,-0.9672,-0.9772,0,0,0,0,0,-0.9825,-0.9805,-0.9804,-0.9766,-0.9761,-0.9764,-0.9752,-0.9759,-0.9748,-0.9744,-0.9738,-0.9726,-0.9705,-0.969,-0.967,-0.9624,-0.9622,-0.9603,-0.9597,-0.9592,-0.9587,-0.9565,-0.9556,-0.9642,-0.9642,-0.9642,0,0,-0.9797,-0.9794,-0.9779,-0.9759,-0.9752,-0.973,-0.976,-0.9735,-0.9718,-0.9739,-0.9705,-0.9701,-0.9688,-0.9647,-0.9629,-0.9641,-0.9563,-0.9587,-0.9583,-0.9581,-0.956,-0.9552,-0.9545,-0.964,-0.964,-0.9641,0,0,-0.9735,-0.973,-0.97,-0.9694,-0.9685,-0.9688,-0.9681,-0.9675,-0.9674,-0.9641,-0.9657,-0.9638,-0.96,-0.9591,-0.9582,-0.9523,-0.9534,-0.9516,-0.9483,-0.9461,-0.9454,-0.9448,-0.9428,-0.9421,-0.9511,-0.9511,-0.9511,0,-0.97,-0.967,-0.9682,-0.9657,-0.9648,-0.967,-0.964,-0.9632,-0.9616,-0.9609,-0.9624,-0.9581,-0.9573,-0.9532,-0.9518,-0.951,-0.9502,-0.9516,-0.9455,-0.9449,-0.9443,-0.9424,-0.9417,-0.9509,-0.9509,-0.9509,-0.9509,0,-0.9629,-0.9607,-0.9584,-0.9572,-0.956,-0.9532,-0.954,-0.9527,-0.9536,-0.9538,-0.9505,-0.9498,-0.9479,-0.947,-0.9476,-0.943,-0.9439,-0.9454,-0.9479,-0.9433,-0.9415,-0.9408,-0.9506,-0.9507,-0.9507,-0.9508,0,0,-0.9537,-0.9537,-0.9528,-0.9524,-0.9518,-0.9501,-0.9476,-0.946,-0.9449,-0.9438,-0.9417,-0.9388,-0.9404,-0.9393,-0.94,-0.9381,-0.9337,-0.9399,-0.9399,-0.9388,-0.9287,-0.9275,-0.9266,-0.9346,-0.9344,-0.9343,-0.9289,0,-0.9476,-0.9433,-0.9446,-0.9403,-0.9384,-0.9407,-0.9385,-0.9379,-0.9381,-0.9365,-0.9367,-0.9347,-0.9369,-0.9363,-0.9346,-0.9346,-0.9316,-0.935,-0.9325,-0.9324,-0.9327,-0.9257,-0.9243,-0.9192,-0.9282,-0.928,-0.928,0,-0.9397,-0.9388,-0.9344,-0.9345,-0.9338,-0.9317,-0.9306,-0.9291,-0.9285,-0.9288,-0.928,-0.9292,-0.9267,-0.9294,-0.926,-0.9283,-0.9274,-0.9273,-0.9271,-0.9268,-0.9298,-0.9251,-0.9175,-0.9167,-0.9268,-0.9269,-0.927,0,-0.9336,-0.9312,-0.9284,-0.928,-0.928,-0.9266,-0.9265,-0.9262,-0.9253,-0.9242,-0.9237,-0.9223,-0.9215,-0.9204,-0.9212,-0.9231,-0.9178,-0.9205,-0.9179,-0.9179,-0.9165,-0.9165,-0.9085,-0.916,-0.916,-0.9161,-0.9161,0,-0.9265,-0.9237,-0.9257,-0.9239,-0.9209,-0.9225,-0.9195,-0.9196,-0.9194,-0.9177,-0.9196,-0.9179,-0.9192,-0.9177,-0.9183,-0.9155,-0.9151,-0.9153,-0.9154,-0.915,-0.915,-0.9143,-0.9147,-0.9159,-0.9159,-0.9159,-0.916,0,-0.919,-0.9202,-0.9173,-0.9178,-0.9179,-0.9156,-0.916,-0.9144,-0.915,-0.9129,-0.9124,-0.9133,-0.9116,-0.9125,-0.9106,-0.9111,-0.9075,-0.9081,-0.9077,-0.9079,-0.9053,-0.9055,-0.8965,-0.8954,-0.9036,-0.9035,-0.9035,0,-0.9143,-0.9123,-0.9128,-0.912,-0.9119,-0.9104,-0.9096,-0.9112,-0.9103,-0.9099,-0.9083,-0.907,-0.9059,-0.9031,-0.9035,-0.9022,-0.9028,-0.8998,-0.9026,-0.9024,-0.9028,-0.9029,-0.9028,-0.8991,-0.899,-0.899,-0.8989,0,-0.906,-0.9068,-0.9058,-0.905,-0.9042,-0.9036,-0.9031,-0.9023,-0.9039,-0.9029,-0.9014,-0.9006,-0.899,-0.8976,-0.8966,-0.8965,-0.8979,-0.8981,-0.8974,-0.8969,-0.8968,-0.8969,-0.9061,-0.8982,-0.8983,-0.8983,-0.8984,-0.8984,-0.8997,-0.8982,-0.8984,-0.8973,-0.8973,-0.8969,-0.8956,-0.8962,-0.8951,-0.8941,-0.8951,-0.8934,-0.8932,-0.8921,-0.8918,-0.8905,-0.8916,-0.8906,-0.8904,-0.8901,-0.8898,-0.8972,-0.8903,-0.8903,-0.8903,-0.8903,-0.8903,0,-0.8915,-0.892,-0.8909,-0.8905,-0.8896,-0.8916,-0.8913,-0.8904,-0.8889,-0.8888,-0.8879,-0.8863,-0.8851,-0.8856,-0.8846,-0.8834,-0.8841,-0.8831,-0.8831,-0.8831,-0.8887,-0.8894,-0.8826,-0.8826,-0.8826,-0.8826,-0.8826,-0.8826,-0.8871,-0.8847,-0.8857,-0.8833,-0.8837,-0.8822,-0.882,-0.8817,-0.8817,-0.88,-0.8791,-0.8796,-0.8797,-0.8788,-0.8778,-0.878,-0.8775,-0.8763,-0.8767,-0.8819,-0.8826,-0.8834,-0.884,-0.8762,-0.8761,-0.8712,-0.8711,-0.8711]},{"header":{"parameterUnit":"m.s-1","parameterCategory":1,"la1":30.2991,"la2":30.254,"lo1":-89.0895,"lo2":-89.0444,"dy":0.0017,"dx":0.0017,"nx":28,"ny":28,"refTime":"2023-08-02T21:00:00:Z","depth":0,"parameterNumber":3,"parameterNumberName":"V-component_of_WINDS"},"data":[0,0,0,0,0,0,0,0,0,0,0,0,0,0,0,0,0,0,0,0,0,0,0,0,0,0,0,0,0,0,0,0,0,0,0,0,0,0,0,0,0,0,0,0,0,0,0,0,0,0,0,0,0,0,0,0,0,0,3.4213,3.4212,0,3.4131,3.413,3.4129,3.4072,3.4072,3.4071,3.4071,3.3985,3.3983,3.3981,0,0,0,0,0,0,0,0,0,0,0,0,0,3.4314,3.4313,3.4213,3.4212,3.4211,3.4131,3.413,3.4129,3.4072,3.4072,3.4071,3.4071,3.3985,3.3983,3.3981,0,0,0,0,0,0,0,0,0,0,0,0,0,3.4255,3.4312,3.4213,3.4173,3.4169,3.4131,3.413,3.4129,3.4072,3.4072,3.4071,3.407,3.3986,3.3983,3.3981,3.3976,0,0,3.3972,3.3971,0,0,0,0,0,0,0,0,3.4259,3.4252,3.418,3.4176,3.4171,3.4111,3.4134,3.4077,3.4072,3.4109,3.4071,3.407,3.4027,3.4021,3.4007,3.3972,3.3968,3.3972,3.397,3.3969,3.3968,0,0,0,0,0,0,0,3.4263,3.4255,3.4181,3.4179,3.4173,3.4157,3.4148,3.4123,3.4073,3.4106,3.4101,3.4093,3.4025,3.401,3.4005,3.3967,3.3972,3.3969,3.3968,3.3966,3.3916,3.3917,0,0,0,0,0,0,3.4274,3.4259,3.4183,3.4178,3.4214,3.4156,3.4146,3.4131,3.4073,3.4063,3.4093,3.409,3.4015,3.4008,3.4001,3.3987,3.3969,3.3966,3.3965,3.3916,3.3917,3.3917,0,0,0,0,0,0,3.4276,3.4268,3.4186,3.4217,3.4205,3.4155,3.4139,3.413,3.4115,3.4063,3.4054,3.4088,3.4014,3.4005,3.3981,3.3984,3.3965,3.3962,3.3916,3.3916,3.3917,3.3963,0,0,0,0,0,0,3.4279,3.4269,3.4269,3.4218,3.4204,3.417,3.4139,3.4129,3.411,3.4106,3.4056,3.4047,3.4013,3.3986,3.3978,3.398,3.396,3.3915,3.3916,3.3917,3.3961,3.3965,3.3968,0,0,0,0,0,3.4283,3.4286,3.4269,3.426,3.4203,3.417,3.4163,3.4124,3.4111,3.4108,3.4074,3.4048,3.3985,3.3984,3.3975,3.3975,3.3915,3.3916,3.3917,3.3959,3.3964,3.3968,0,0,0,0,0,0,3.4339,3.4279,3.4259,3.4246,3.4213,3.4161,3.4157,3.4132,3.4102,3.4099,3.4052,3.4041,3.4021,3.3996,3.3996,3.3964,3.3946,3.3945,3.3982,3.3986,3.399,3.3995,3.3958,0,0,0,0,0,3.435,3.433,3.4278,3.427,3.4255,3.4209,3.4194,3.4166,3.4131,3.4117,3.4081,3.4047,3.4018,3.4001,3.3972,3.3957,3.3942,3.3952,3.3956,3.3959,3.3958,3.3943,3.3945,3.392,3.392,3.392,0,0,3.4372,3.4336,3.4327,3.4281,3.4253,3.423,3.4198,3.4178,3.4159,3.4114,3.4088,3.406,3.4018,3.3996,3.3985,3.3975,3.3962,3.396,3.3963,3.3961,3.3944,3.3946,3.3948,3.392,3.392,3.392,0,0,3.44,3.4373,3.4361,3.4333,3.429,3.4258,3.4256,3.4206,3.4185,3.4158,3.4121,3.4098,3.4052,3.4022,3.4001,3.4011,3.3984,3.4003,3.4022,3.4007,3.4009,3.4011,3.4011,3.4012,3.4002,3.4003,3.4003,0,3.4432,3.4399,3.4359,3.4338,3.4317,3.4273,3.4259,3.4233,3.4183,3.4168,3.4157,3.4094,3.4063,3.4031,3.4033,3.4019,3.4011,3.4008,3.4013,3.4014,3.4014,3.4014,3.4014,3.4005,3.4005,3.4004,3.4004,0,3.4439,3.4416,3.4412,3.4363,3.4341,3.4325,3.4278,3.426,3.4234,3.4202,3.4172,3.4133,3.4093,3.4083,3.4058,3.4046,3.404,3.4022,3.4003,3.402,3.4018,3.4018,3.4008,3.4007,3.4007,3.4006,0,0,3.4502,3.4428,3.4427,3.4402,3.4349,3.433,3.4308,3.4269,3.4253,3.4219,3.4197,3.4156,3.4136,3.4112,3.4082,3.407,3.4074,3.4051,3.4049,3.4054,3.4053,3.4067,3.4068,3.4056,3.4056,3.4056,3.4056,0,3.4519,3.4481,3.4441,3.4415,3.439,3.4346,3.4327,3.4291,3.4259,3.4232,3.4197,3.4167,3.4146,3.413,3.4115,3.4077,3.4073,3.4077,3.4033,3.4032,3.4044,3.4067,3.4082,3.4084,3.4055,3.4055,3.4055,0,3.4536,3.4502,3.4474,3.4418,3.4406,3.4391,3.4348,3.4324,3.428,3.4257,3.4228,3.4195,3.4167,3.415,3.4108,3.4111,3.409,3.4068,3.4067,3.4061,3.4044,3.4059,3.4085,3.4084,3.4055,3.4055,3.4055,0,3.458,3.4527,3.4502,3.4483,3.4419,3.4408,3.438,3.4336,3.4313,3.4275,3.4259,3.4219,3.4197,3.4165,3.412,3.4113,3.4081,3.4062,3.4059,3.406,3.4054,3.4055,3.4075,3.4044,3.4044,3.4044,3.4044,0,3.4602,3.4585,3.452,3.4505,3.4483,3.4436,3.4415,3.4384,3.4343,3.4318,3.4278,3.4255,3.4199,3.4168,3.4133,3.41,3.4091,3.407,3.4061,3.4073,3.4075,3.4058,3.4056,3.4044,3.4044,3.4044,3.4044,0,3.4648,3.4604,3.4573,3.4514,3.4498,3.4485,3.4433,3.4414,3.4379,3.4348,3.4337,3.4282,3.4243,3.4195,3.4142,3.4118,3.4088,3.4075,3.4103,3.4097,3.4095,3.4095,3.4103,3.41,3.4074,3.4075,3.4075,0,3.4664,3.465,3.4588,3.4569,3.4543,3.4512,3.4488,3.4439,3.4415,3.4361,3.4348,3.4306,3.427,3.4209,3.4162,3.4119,3.4103,3.4109,3.4097,3.4108,3.41,3.41,3.4097,3.4112,3.4113,3.4113,3.4114,0,3.4696,3.4674,3.4641,3.46,3.4572,3.4537,3.45,3.4486,3.4429,3.4403,3.4363,3.4334,3.4278,3.4235,3.4185,3.4154,3.4123,3.4117,3.4114,3.4126,3.4141,3.4129,3.4109,3.4118,3.4117,3.4117,3.4117,3.4117,3.4725,3.4708,3.4662,3.4625,3.4592,3.4557,3.4536,3.4497,3.4463,3.4413,3.4386,3.4345,3.4296,3.4226,3.4196,3.4161,3.415,3.4146,3.4144,3.4144,3.4146,3.4148,3.4152,3.4152,3.4152,3.4151,3.4151,0,3.4751,3.4719,3.4686,3.4635,3.4605,3.4579,3.4535,3.4511,3.4477,3.4434,3.4399,3.435,3.4307,3.4255,3.4208,3.419,3.4174,3.4179,3.4179,3.4171,3.416,3.4166,3.4192,3.4192,3.4192,3.4192,3.4192,3.4192,3.4762,3.4732,3.4704,3.4655,3.4621,3.4581,3.4558,3.4524,3.449,3.4437,3.4402,3.4369,3.4321,3.427,3.4228,3.4213,3.4197,3.4205,3.4186,3.4176,3.4173,3.4169,3.4175,3.4202,3.4203,3.42,3.42,3.42]}]]